Location: Luxembourg
(49.6117°N, 6.1300°E)
Time: 06:54:00
(UTC+01:00)

N. Korean satellite - Pass Details

Date: 25 January 2019
Orbit: 456 x 510 km, 97.2° (Epoch: 21 February)

Event Time Altitude Azimuth Distance (km) Brightness Sun altitude
Rises 19:09:12 0° 213° (SSW) 2,594 10.9 -17.7°
Reaches altitude 10° 19:12:13 10° 241° (WSW) 1,724 10.4 -18.2°
Maximum altitude 19:14:05 13° 271° (W) 1,531 10.2 -18.5°
Drops below altitude 10° 19:15:58 10° 302° (WNW) 1,738 10.1 -18.8°
Sets 19:19:03 0° 330° (NNW) 2,634 10.6 -19.3°
